{"data":{"norad_id":57893,"epoch":"2026-09-20T19:08:36.653280Z","epoch_age_seconds":109394,"freshness":"FRESH","line1":"1 57893U 23146C   26263.79764645  .00000131  00000+0  14295-4 0  9994","line2":"2 57893  43.0027 292.4355 0000995 283.0867  76.9873 15.27574740166899","mean_motion":15.2757474,"eccentricity":9.95e-5,"inclination_deg":43.0027,"raan_deg":292.4355,"arg_perigee_deg":283.0867,"mean_anomaly_deg":76.9873,"bstar":1.4295e-5,"rev_number":16689,"period_min":94.267073308636,"perigee_km":482.3821568334,"apogee_km":483.74753600084,"semimajor_km":6861.2018464171,"source":"CELESTRAK","updated_at":"2026-09-21T09:00:33.720706Z"}}